1998-067HR

Last updated on Sun Feb 14 2016 09:35:14 GMT+0000 (Greenwich Mean Time)

1 41326U 98067HR 16045.16420689 .00458594 00000-0 49177-2 0 9993 2 41326 51.6443 316.2489 0008881 144.4538 215.7534 15.61728493 1619

Satellite not in orbit